START_TIME,STEP,MOV.,H8,t_acc.,H43,t_acc.,M25,t_acc.,H9,t_acc.
1979-03-09 15:00:26.570 ,4,1,0.,12.0,0.,12.0,0.,12.0,0.,12.0
1979-03-09 15:00:38.570 ,4,1,0.,12.0,0.,12.0,0.,12.0,0.,12.0
1979-03-09 15:00:50.570 ,0,1,0.,12.0,0.,12.0,0.,12.0,0.,12.0
1979-03-09 15:01:02.570 ,0,1,0.,12.0,0.,12.0,0.,12.0,0.,12.0
1979-03-09 15:01:14.570 ,3,1,0.,12.0,0.,12.0,0.,12.0,0.,12.0
1979-03-09 15:01:26.570 ,3,1,0.,12.0,0.,12.0,0.,12.0,0.,12.0
1979-03-09 15:01:38.570 ,7,1,1.,12.0,0.,12.0,0.,12.0,0.,12.0
1979-03-09 15:01:50.570 ,7,1,0.,12.0,0.,12.0,0.,12.0,0.,12.0
1979-03-09 15:02:02.570 ,4,1,0.,12.0,0.,12.0,0.,12.0,0.,12.0
1979-03-09 15:02:14.570 ,4,1,0.,12.0,0.,12.0,0.,12.0,0.,12.0
1979-03-09 15:02:26.570 ,0,1,0.,12.0,0.,12.0,0.,12.0,0.,12.0
1979-03-09 15:02:38.570 ,0,1,0.,12.0,0.,12.0,0.,12.0,0.,12.0
1979-03-09 15:02:50.570 ,3,1,0.,12.0,0.,12.0,0.,12.0,0.,12.0
1979-03-09 15:03:02.570 ,3,1,0.,12.0,0.,12.0,0.,12.0,0.,12.0
1979-03-09 15:03:14.570 ,7,1,0.,12.0,0.,12.0,0.,12.0,0.,12.0
1979-03-09 15:03:26.570 ,7,1,0.,12.0,0.,12.0,0.,12.0,0.,12.0
1979-03-09 15:03:38.570 ,4,1,0.,12.0,0.,12.0,0.,12.0,0.,12.0
1979-03-09 15:03:50.570 ,4,1,0.,12.0,0.,12.0,0.,12.0,0.,12.0
1979-03-09 15:04:02.570 ,0,1,0.,12.0,0.,12.0,0.,12.0,0.,12.0
1979-03-09 15:04:14.570 ,0,1,0.,12.0,0.,12.0,0.,12.0,0.,12.0
1979-03-09 15:04:26.570 ,3,1,0.,12.0,0.,12.0,0.,12.0,0.,12.0
1979-03-09 15:04:38.570 ,3,1,0.,12.0,0.,12.0,0.,12.0,0.,12.0
1979-03-09 15:04:50.560 ,7,1,0.,12.0,0.,12.0,0.,12.0,0.,12.0
1979-03-09 15:05:02.560 ,7,1,0.,12.0,0.,12.0,0.,12.0,0.,12.0
1979-03-09 15:05:14.560 ,4,1,0.,12.0,0.,12.0,0.,12.0,0.,12.0
1979-03-09 15:05:26.560 ,4,1,0.,12.0,0.,12.0,0.,12.0,0.,12.0
1979-03-09 15:05:38.560 ,0,1,0.,12.0,0.,12.0,0.,12.0,0.,12.0
1979-03-09 15:05:50.560 ,0,1,0.,12.0,0.,12.0,0.,12.0,0.,12.0
1979-03-09 15:06:02.560 ,3,1,0.,12.0,0.,12.0,0.,12.0,0.,12.0
1979-03-09 15:06:14.560 ,3,1,0.,12.0,0.,12.0,0.,12.0,0.,12.0
1979-03-09 15:06:26.560 ,7,1,0.,12.0,0.,12.0,0.,12.0,0.,12.0
1979-03-09 15:06:38.560 ,7,1,0.,12.0,0.,12.0,0.,12.0,0.,12.0
1979-03-09 15:06:50.560 ,4,1,0.,12.0,0.,12.0,0.,12.0,0.,12.0
1979-03-09 15:07:02.560 ,4,1,0.,12.0,0.,12.0,0.,12.0,0.,12.0
1979-03-09 15:07:14.560 ,0,1,0.,12.0,0.,12.0,0.,12.0,0.,12.0
1979-03-09 15:07:26.560 ,0,1,0.,12.0,0.,12.0,0.,12.0,0.,12.0
1979-03-09 15:07:38.560 ,3,1,0.,12.0,0.,12.0,0.,12.0,0.,12.0
1979-03-09 15:07:50.560 ,3,1,0.,12.0,0.,12.0,0.,12.0,0.,12.0
1979-03-09 15:08:02.560 ,7,1,1.,12.0,0.,12.0,0.,12.0,0.,12.0
1979-03-09 15:08:14.560 ,7,1,0.,12.0,0.,12.0,0.,12.0,0.,12.0
1979-03-09 15:08:26.560 ,4,1,0.,12.0,0.,12.0,0.,12.0,0.,12.0
1979-03-09 15:08:38.560 ,4,1,1.,12.0,0.,12.0,0.,12.0,0.,12.0
1979-03-09 15:08:50.560 ,0,1,0.,12.0,0.,12.0,0.,12.0,0.,12.0
1979-03-09 15:09:02.560 ,0,1,0.,12.0,0.,12.0,0.,12.0,0.,12.0
1979-03-09 15:09:14.560 ,3,1,0.,12.0,0.,12.0,0.,12.0,0.,12.0
1979-03-09 15:09:26.560 ,3,1,0.,12.0,0.,12.0,0.,12.0,0.,12.0
1979-03-09 15:09:38.560 ,7,1,0.,12.0,0.,12.0,0.,12.0,0.,12.0
1979-03-09 15:09:50.560 ,7,1,0.,12.0,0.,12.0,0.,12.0,0.,12.0
1979-03-09 15:10:02.560 ,0,0,0.,12.0,0.,12.0,0.,12.0,0.,12.0
1979-03-09 15:10:14.560 ,0,0,0.,12.0,0.,12.0,0.,12.0,0.,12.0
1979-03-09 15:10:51.160 ,0,0,0.,12.0,0.,12.0,0.,12.0,0.,12.0
1979-03-09 15:11:03.160 ,0,0,0.,12.0,0.,12.0,0.,12.0,0.,12.0
1979-03-09 15:11:14.560 ,7,1,0.,12.0,0.,12.0,0.,12.0,0.,12.0
1979-03-09 15:11:26.560 ,7,1,0.,12.0,0.,12.0,0.,12.0,0.,12.0
1979-03-09 15:11:38.560 ,4,1,0.,12.0,0.,12.0,0.,12.0,0.,12.0
1979-03-09 15:11:50.560 ,4,1,0.,12.0,0.,12.0,0.,12.0,0.,12.0
1979-03-09 15:12:02.560 ,0,1,0.,12.0,0.,12.0,0.,12.0,0.,12.0
1979-03-09 15:12:14.560 ,0,1,0.,12.0,0.,12.0,0.,12.0,0.,12.0
1979-03-09 15:12:26.560 ,3,1,0.,12.0,0.,12.0,0.,12.0,0.,12.0
1979-03-09 15:12:38.560 ,3,1,0.,12.0,0.,12.0,0.,12.0,0.,12.0
1979-03-09 15:12:50.550 ,7,1,1.,12.0,0.,12.0,0.,12.0,0.,12.0
1979-03-09 15:13:02.550 ,7,1,0.,12.0,0.,12.0,0.,12.0,0.,12.0
1979-03-09 15:13:14.550 ,4,1,0.,12.0,0.,12.0,0.,12.0,0.,12.0
1979-03-09 15:13:26.550 ,4,1,0.,12.0,0.,12.0,0.,12.0,0.,12.0
1979-03-09 15:13:38.550 ,0,1,0.,12.0,0.,12.0,0.,12.0,0.,12.0
1979-03-09 15:13:50.550 ,0,1,0.,12.0,0.,12.0,0.,12.0,0.,12.0
1979-03-09 15:14:02.550 ,3,1,0.,12.0,0.,12.0,0.,12.0,0.,12.0
1979-03-09 15:14:14.550 ,3,1,0.,12.0,0.,12.0,0.,12.0,0.,12.0
1979-03-09 15:14:26.550 ,7,1,0.,12.0,0.,12.0,0.,12.0,0.,12.0
1979-03-09 15:14:38.550 ,7,1,0.,12.0,0.,12.0,0.,12.0,0.,12.0
1979-03-09 15:14:50.550 ,4,1,0.,12.0,0.,12.0,0.,12.0,0.,12.0
1979-03-09 15:15:02.550 ,4,1,0.,12.0,0.,12.0,0.,12.0,0.,12.0
1979-03-09 15:15:14.550 ,0,1,0.,12.0,0.,12.0,0.,12.0,0.,12.0
1979-03-09 15:15:26.550 ,0,1,0.,12.0,0.,12.0,0.,12.0,0.,12.0
1979-03-09 15:15:38.550 ,3,1,0.,12.0,0.,12.0,0.,12.0,0.,12.0
1979-03-09 15:15:50.550 ,3,1,0.,12.0,0.,12.0,0.,12.0,0.,12.0
1979-03-09 15:16:02.550 ,7,1,0.,12.0,0.,12.0,0.,12.0,0.,12.0
1979-03-09 15:16:14.550 ,7,1,0.,12.0,0.,12.0,0.,12.0,0.,12.0
1979-03-09 15:16:26.550 ,4,1,0.,12.0,0.,12.0,0.,12.0,0.,12.0
1979-03-09 15:16:38.550 ,4,1,0.,12.0,0.,12.0,0.,12.0,0.,12.0
1979-03-09 15:16:50.550 ,0,1,0.,12.0,0.,12.0,0.,12.0,0.,12.0
1979-03-09 15:17:02.550 ,0,1,0.,12.0,0.,12.0,0.,12.0,0.,12.0
1979-03-09 15:17:14.550 ,3,1,0.,12.0,0.,12.0,0.,12.0,0.,12.0
1979-03-09 15:17:26.550 ,3,1,1.,12.0,0.,12.0,0.,12.0,0.,12.0
1979-03-09 15:17:38.550 ,7,1,0.,12.0,0.,12.0,0.,12.0,0.,12.0
1979-03-09 15:17:50.550 ,7,1,0.,12.0,0.,12.0,0.,12.0,0.,12.0
1979-03-09 15:18:02.550 ,4,1,0.,12.0,0.,12.0,0.,12.0,0.,12.0
1979-03-09 15:18:14.550 ,4,1,0.,12.0,0.,12.0,0.,12.0,0.,12.0
1979-03-09 15:18:26.550 ,0,1,0.,12.0,0.,12.0,0.,12.0,0.,12.0
1979-03-09 15:18:38.550 ,0,1,0.,12.0,0.,12.0,0.,12.0,0.,12.0
1979-03-09 15:18:50.550 ,3,1,0.,12.0,0.,12.0,0.,12.0,0.,12.0
1979-03-09 15:19:02.550 ,3,1,0.,12.0,0.,12.0,0.,12.0,0.,12.0
1979-03-09 15:19:14.550 ,7,1,1.,12.0,0.,12.0,0.,12.0,0.,12.0
1979-03-09 15:19:26.550 ,7,1,0.,12.0,0.,12.0,0.,12.0,0.,12.0
1979-03-09 15:19:38.550 ,4,1,0.,12.0,0.,12.0,0.,12.0,0.,12.0
1979-03-09 15:19:50.550 ,4,1,0.,12.0,0.,12.0,0.,12.0,0.,12.0
1979-03-09 15:20:02.550 ,0,1,0.,12.0,0.,12.0,0.,12.0,0.,12.0
1979-03-09 15:20:14.550 ,0,1,0.,12.0,0.,12.0,0.,12.0,0.,12.0
1979-03-09 15:20:26.550 ,3,1,0.,12.0,0.,12.0,0.,12.0,0.,12.0
1979-03-09 15:20:38.550 ,3,1,0.,12.0,0.,12.0,0.,12.0,0.,12.0
1979-03-09 15:20:50.550 ,7,1,0.,12.0,0.,12.0,0.,12.0,0.,12.0
1979-03-09 15:21:02.550 ,7,1,1.,12.0,0.,12.0,0.,12.0,0.,12.0
1979-03-09 15:21:14.550 ,4,1,0.,12.0,0.,12.0,0.,12.0,0.,12.0
1979-03-09 15:21:26.550 ,4,1,0.,12.0,0.,12.0,0.,12.0,0.,12.0
1979-03-09 15:21:38.550 ,0,1,0.,12.0,0.,12.0,0.,12.0,0.,12.0
1979-03-09 15:21:50.550 ,0,1,0.,12.0,0.,12.0,0.,12.0,0.,12.0
1979-03-09 15:22:02.550 ,3,1,0.,12.0,0.,12.0,0.,12.0,0.,12.0
1979-03-09 15:22:14.550 ,3,1,0.,12.0,0.,12.0,0.,12.0,0.,12.0
1979-03-09 15:22:26.550 ,7,1,0.,12.0,0.,12.0,0.,12.0,0.,12.0
1979-03-09 15:22:38.550 ,7,1,0.,12.0,0.,12.0,0.,12.0,0.,12.0
1979-03-09 15:22:50.550 ,4,1,0.,12.0,0.,12.0,0.,12.0,0.,12.0
1979-03-09 15:23:02.550 ,4,1,0.,12.0,0.,12.0,0.,12.0,0.,12.0
1979-03-09 15:23:14.540 ,0,1,0.,12.0,0.,12.0,0.,12.0,0.,12.0
1979-03-09 15:23:26.540 ,0,1,0.,12.0,0.,12.0,0.,12.0,0.,12.0
1979-03-09 15:23:38.540 ,3,1,0.,12.0,0.,12.0,0.,12.0,0.,12.0
1979-03-09 15:23:50.540 ,3,1,0.,12.0,0.,12.0,0.,12.0,0.,12.0
1979-03-09 15:24:02.540 ,7,1,0.,12.0,0.,12.0,0.,12.0,0.,12.0
1979-03-09 15:24:14.540 ,7,1,0.,12.0,0.,12.0,0.,12.0,0.,12.0
1979-03-09 15:24:26.540 ,4,1,0.,12.0,0.,12.0,0.,12.0,0.,12.0
1979-03-09 15:24:38.540 ,4,1,0.,12.0,0.,12.0,0.,12.0,0.,12.0
1979-03-09 15:24:50.540 ,0,1,0.,12.0,0.,12.0,0.,12.0,0.,12.0
1979-03-09 15:25:02.540 ,0,1,0.,12.0,0.,12.0,0.,12.0,0.,12.0
1979-03-09 15:25:14.540 ,3,1,0.,12.0,0.,12.0,0.,12.0,0.,12.0
1979-03-09 15:25:26.540 ,3,1,0.,12.0,0.,12.0,0.,12.0,0.,12.0
1979-03-09 15:25:38.540 ,7,1,0.,12.0,0.,12.0,0.,12.0,0.,12.0
1979-03-09 15:25:50.540 ,7,1,0.,12.0,0.,12.0,0.,12.0,0.,12.0
1979-03-09 15:26:02.540 ,4,1,0.,12.0,0.,12.0,0.,12.0,0.,12.0
1979-03-09 15:26:14.540 ,4,1,0.,12.0,0.,12.0,0.,12.0,0.,12.0
1979-03-09 15:26:26.540 ,0,1,0.,12.0,0.,12.0,0.,12.0,0.,12.0
1979-03-09 15:26:38.540 ,0,1,0.,12.0,0.,12.0,0.,12.0,0.,12.0
1979-03-09 15:26:50.540 ,3,1,0.,12.0,0.,12.0,0.,12.0,0.,12.0
1979-03-09 15:27:02.540 ,3,1,0.,12.0,0.,12.0,0.,12.0,0.,12.0
1979-03-09 15:27:14.540 ,7,1,0.,12.0,0.,12.0,0.,12.0,0.,12.0
1979-03-09 15:27:26.540 ,7,1,0.,12.0,0.,12.0,0.,12.0,0.,12.0
1979-03-09 15:27:38.540 ,4,1,0.,12.0,0.,12.0,0.,12.0,0.,12.0
1979-03-09 15:27:50.540 ,4,1,0.,12.0,0.,12.0,0.,12.0,0.,12.0
1979-03-09 15:28:02.540 ,0,1,0.,12.0,0.,12.0,0.,12.0,0.,12.0
1979-03-09 15:28:14.540 ,0,1,0.,12.0,0.,12.0,0.,12.0,0.,12.0
1979-03-09 15:28:26.540 ,3,1,0.,12.0,0.,12.0,0.,12.0,0.,12.0
1979-03-09 15:28:38.540 ,3,1,0.,12.0,0.,12.0,0.,12.0,0.,12.0
1979-03-09 15:28:50.540 ,7,1,0.,12.0,0.,12.0,0.,12.0,0.,12.0
1979-03-09 15:29:02.540 ,7,1,0.,12.0,0.,12.0,0.,12.0,0.,12.0
1979-03-09 15:29:14.540 ,0,0,0.,12.0,0.,12.0,0.,12.0,0.,12.0
1979-03-09 15:29:26.540 ,0,0,,0,,0,,0,,0
1979-03-09 15:30:15.740 ,0,0,,0,,0,,0,,0
1979-03-09 15:30:27.740 ,0,0,0.,12.0,0.,12.0,0.,12.0,0.,12.0
1979-03-09 15:30:26.540 ,7,1,0.,12.0,0.,12.0,0.,12.0,0.,12.0
1979-03-09 15:30:38.540 ,7,1,0.,12.0,0.,12.0,0.,12.0,0.,12.0
1979-03-09 15:30:50.540 ,4,1,0.,12.0,0.,12.0,0.,12.0,0.,12.0
1979-03-09 15:31:02.540 ,4,1,0.,12.0,0.,12.0,0.,12.0,0.,12.0
1979-03-09 15:31:14.540 ,2,0,0.,12.0,0.,12.0,0.,12.0,0.,12.0
1979-03-09 15:31:26.540 ,2,0,0.,12.0,0.,12.0,0.,12.0,0.,12.0
1979-03-09 15:31:38.540 ,1,0,1.,12.0,0.,12.0,0.,12.0,0.,12.0
1979-03-09 15:31:50.540 ,1,0,0.,12.0,0.,12.0,0.,12.0,0.,12.0
1979-03-09 15:32:02.530 ,0,0,0.,12.0,0.,12.0,0.,12.0,0.,12.0
1979-03-09 15:32:14.530 ,0,0,0.,12.0,0.,12.0,0.,12.0,0.,12.0
1979-03-09 15:32:26.530 ,0,0,0.,12.0,0.,12.0,0.,12.0,0.,12.0
1979-03-09 15:32:38.530 ,0,0,0.,12.0,0.,12.0,0.,12.0,0.,12.0
1979-03-09 15:32:50.530 ,1,0,0.,12.0,0.,12.0,0.,12.0,0.,12.0
1979-03-09 15:33:02.530 ,1,0,0.,12.0,0.,12.0,0.,12.0,0.,12.0
1979-03-09 15:33:14.530 ,2,0,1.,12.0,0.,12.0,0.,12.0,0.,12.0
1979-03-09 15:33:26.530 ,2,0,0.,12.0,0.,12.0,0.,12.0,0.,12.0
1979-03-09 15:33:38.530 ,3,0,0.,12.0,0.,12.0,0.,12.0,0.,12.0
1979-03-09 15:33:50.530 ,3,0,0.,12.0,0.,12.0,0.,12.0,0.,12.0
1979-03-09 15:34:02.530 ,4,0,0.,12.0,0.,12.0,0.,12.0,0.,12.0
1979-03-09 15:34:14.530 ,4,0,0.,12.0,0.,12.0,0.,12.0,0.,12.0
1979-03-09 15:34:26.530 ,5,0,0.,12.0,0.,12.0,0.,12.0,0.,12.0
1979-03-09 15:34:38.530 ,5,0,0.,12.0,0.,12.0,0.,12.0,0.,12.0
1979-03-09 15:34:50.530 ,6,0,1.,12.0,0.,12.0,0.,12.0,0.,12.0
1979-03-09 15:35:02.530 ,6,0,0.,12.0,0.,12.0,0.,12.0,0.,12.0
1979-03-09 15:35:14.530 ,7,0,0.,12.0,0.,12.0,0.,12.0,0.,12.0
1979-03-09 15:35:26.530 ,7,0,0.,12.0,0.,12.0,0.,12.0,0.,12.0
1979-03-09 15:35:38.530 ,7,0,0.,12.0,0.,12.0,0.,12.0,0.,12.0
1979-03-09 15:35:50.530 ,7,0,0.,12.0,0.,12.0,0.,12.0,0.,12.0
1979-03-09 15:36:02.530 ,6,0,0.,12.0,0.,12.0,0.,12.0,0.,12.0
1979-03-09 15:36:14.530 ,6,0,0.,12.0,0.,12.0,0.,12.0,0.,12.0
1979-03-09 15:36:26.530 ,5,0,0.,12.0,0.,12.0,0.,12.0,0.,12.0
1979-03-09 15:36:38.530 ,5,0,0.,12.0,0.,12.0,0.,12.0,0.,12.0
1979-03-09 15:36:50.530 ,4,0,0.,12.0,0.,12.0,0.,12.0,0.,12.0
1979-03-09 15:37:02.530 ,4,0,0.,12.0,0.,12.0,0.,12.0,0.,12.0
1979-03-09 15:37:14.530 ,3,0,0.,12.0,0.,12.0,0.,12.0,0.,12.0
1979-03-09 15:37:26.530 ,3,0,0.,12.0,0.,12.0,0.,12.0,0.,12.0
1979-03-09 15:37:38.530 ,2,0,0.,12.0,0.,12.0,0.,12.0,0.,12.0
1979-03-09 15:37:50.530 ,2,0,0.,12.0,0.,12.0,0.,12.0,0.,12.0
1979-03-09 15:38:02.530 ,1,0,0.,12.0,0.,12.0,0.,12.0,0.,12.0
1979-03-09 15:38:14.530 ,1,0,0.,12.0,0.,12.0,0.,12.0,0.,12.0
1979-03-09 15:38:26.530 ,0,0,0.,12.0,0.,12.0,0.,12.0,0.,12.0
1979-03-09 15:38:38.530 ,0,0,0.,12.0,0.,12.0,0.,12.0,0.,12.0
1979-03-09 15:38:50.530 ,0,0,0.,12.0,0.,12.0,0.,12.0,0.,12.0
1979-03-09 15:39:02.530 ,0,0,0.,12.0,0.,12.0,0.,12.0,0.,12.0
1979-03-09 15:39:14.530 ,1,0,0.,12.0,0.,12.0,0.,12.0,0.,12.0
1979-03-09 15:39:26.530 ,1,0,0.,12.0,0.,12.0,0.,12.0,0.,12.0
1979-03-09 15:39:38.530 ,2,0,0.,12.0,0.,12.0,0.,12.0,0.,12.0
1979-03-09 15:39:50.530 ,2,0,0.,12.0,0.,12.0,0.,12.0,0.,12.0
1979-03-09 15:40:02.530 ,3,0,0.,12.0,0.,12.0,0.,12.0,0.,12.0
1979-03-09 15:40:14.530 ,3,0,0.,12.0,0.,12.0,0.,12.0,0.,12.0
1979-03-09 15:40:26.530 ,4,0,0.,12.0,0.,12.0,0.,12.0,0.,12.0
1979-03-09 15:40:38.530 ,4,0,0.,12.0,0.,12.0,0.,12.0,0.,12.0
1979-03-09 15:40:50.520 ,5,0,0.,12.0,0.,12.0,0.,12.0,0.,12.0
1979-03-09 15:41:02.520 ,5,0,0.,12.0,0.,12.0,0.,12.0,0.,12.0
1979-03-09 15:41:14.520 ,6,0,0.,12.0,0.,12.0,0.,12.0,0.,12.0
1979-03-09 15:41:26.520 ,6,0,0.,12.0,0.,12.0,0.,12.0,0.,12.0
1979-03-09 15:41:38.520 ,7,0,0.,12.0,0.,12.0,0.,12.0,0.,12.0
1979-03-09 15:41:50.520 ,7,0,0.,12.0,0.,12.0,0.,12.0,0.,12.0
1979-03-09 15:42:02.520 ,7,0,0.,12.0,0.,12.0,0.,12.0,0.,12.0
1979-03-09 15:42:14.520 ,7,0,0.,12.0,0.,12.0,0.,12.0,0.,12.0
1979-03-09 15:42:26.520 ,6,0,0.,12.0,0.,12.0,0.,12.0,0.,12.0
1979-03-09 15:42:38.520 ,6,0,0.,12.0,0.,12.0,0.,12.0,0.,12.0
1979-03-09 15:42:50.520 ,5,0,0.,12.0,0.,12.0,0.,12.0,0.,12.0
1979-03-09 15:43:02.520 ,5,0,0.,12.0,0.,12.0,0.,12.0,0.,12.0
1979-03-09 15:43:14.520 ,4,0,0.,12.0,0.,12.0,0.,12.0,0.,12.0
1979-03-09 15:43:26.520 ,4,0,0.,12.0,0.,12.0,0.,12.0,0.,12.0
1979-03-09 15:43:38.520 ,3,0,0.,12.0,0.,12.0,0.,12.0,0.,12.0
1979-03-09 15:43:50.520 ,3,0,0.,12.0,0.,12.0,0.,12.0,0.,12.0
1979-03-09 15:44:02.520 ,2,0,0.,12.0,0.,12.0,0.,12.0,0.,12.0
1979-03-09 15:44:14.520 ,2,0,0.,12.0,0.,12.0,0.,12.0,0.,12.0
1979-03-09 15:44:26.520 ,1,0,0.,12.0,0.,12.0,0.,12.0,0.,12.0
1979-03-09 15:44:38.520 ,1,0,0.,12.0,0.,12.0,0.,12.0,0.,12.0
1979-03-09 15:44:50.520 ,0,0,0.,12.0,0.,12.0,0.,12.0,0.,12.0
1979-03-09 15:45:02.520 ,0,0,0.,12.0,0.,12.0,0.,12.0,0.,12.0
1979-03-09 15:45:14.520 ,0,0,0.,12.0,0.,12.0,0.,12.0,0.,12.0
1979-03-09 15:45:26.520 ,0,0,0.,12.0,0.,12.0,0.,12.0,0.,12.0
1979-03-09 15:45:38.520 ,1,0,0.,12.0,0.,12.0,0.,12.0,0.,12.0
1979-03-09 15:45:50.520 ,1,0,0.,12.0,0.,12.0,0.,12.0,0.,12.0
1979-03-09 15:46:02.520 ,2,0,0.,12.0,0.,12.0,0.,12.0,0.,12.0
1979-03-09 15:46:14.520 ,2,0,0.,12.0,0.,12.0,0.,12.0,0.,12.0
1979-03-09 15:46:26.520 ,3,0,0.,12.0,0.,12.0,0.,12.0,0.,12.0
1979-03-09 15:46:38.520 ,3,0,0.,12.0,0.,12.0,0.,12.0,0.,12.0
1979-03-09 15:46:50.520 ,4,0,0.,12.0,0.,12.0,0.,12.0,0.,12.0
1979-03-09 15:47:02.520 ,4,0,0.,12.0,0.,12.0,0.,12.0,0.,12.0
1979-03-09 15:47:14.520 ,5,0,1.,12.0,0.,12.0,0.,12.0,0.,12.0
1979-03-09 15:47:26.520 ,5,0,0.,12.0,0.,12.0,0.,12.0,0.,12.0
1979-03-09 15:47:38.520 ,6,0,0.,12.0,0.,12.0,0.,12.0,0.,12.0
1979-03-09 15:47:50.520 ,6,0,0.,12.0,0.,12.0,0.,12.0,0.,12.0
1979-03-09 15:48:02.520 ,7,0,0.,12.0,0.,12.0,0.,12.0,0.,12.0
1979-03-09 15:48:14.520 ,7,0,0.,12.0,0.,12.0,0.,12.0,0.,12.0
1979-03-09 15:48:26.520 ,7,0,0.,12.0,0.,12.0,0.,12.0,0.,12.0
1979-03-09 15:48:38.520 ,7,0,0.,12.0,0.,12.0,0.,12.0,0.,12.0
1979-03-09 15:48:50.520 ,6,0,0.,12.0,0.,12.0,0.,12.0,0.,12.0
1979-03-09 15:49:02.520 ,6,0,0.,12.0,0.,12.0,0.,12.0,0.,12.0
1979-03-09 15:49:14.520 ,5,0,0.,12.0,0.,12.0,0.,12.0,0.,12.0
1979-03-09 15:49:26.520 ,5,0,0.,12.0,0.,12.0,0.,12.0,0.,12.0
1979-03-09 15:49:38.510 ,4,0,0.,12.0,0.,12.0,0.,12.0,0.,12.0
1979-03-09 15:49:50.510 ,4,0,1.,12.0,0.,12.0,0.,12.0,0.,12.0
1979-03-09 15:50:02.510 ,3,0,0.,12.0,0.,12.0,0.,12.0,0.,12.0
1979-03-09 15:50:14.510 ,3,0,0.,12.0,0.,12.0,0.,12.0,0.,12.0
1979-03-09 15:50:26.510 ,2,0,0.,12.0,0.,12.0,0.,12.0,0.,12.0
1979-03-09 15:50:38.510 ,2,0,0.,12.0,0.,12.0,0.,12.0,0.,12.0
1979-03-09 15:50:50.510 ,1,0,0.,12.0,0.,12.0,0.,12.0,0.,12.0
1979-03-09 15:51:02.510 ,1,0,0.,12.0,0.,12.0,0.,12.0,0.,12.0
1979-03-09 15:51:14.510 ,0,0,0.,12.0,0.,12.0,0.,12.0,0.,12.0
1979-03-09 15:51:26.510 ,0,0,0.,12.0,0.,12.0,0.,12.0,0.,12.0
1979-03-09 15:51:38.510 ,0,0,0.,12.0,0.,12.0,0.,12.0,0.,12.0
1979-03-09 15:51:50.510 ,0,0,0.,12.0,0.,12.0,0.,12.0,0.,12.0
1979-03-09 15:52:02.510 ,1,0,0.,12.0,0.,12.0,0.,12.0,0.,12.0
1979-03-09 15:52:14.510 ,1,0,0.,12.0,0.,12.0,0.,12.0,0.,12.0
1979-03-09 15:52:26.510 ,2,0,0.,12.0,0.,12.0,0.,12.0,0.,12.0
1979-03-09 15:52:38.510 ,2,0,0.,12.0,0.,12.0,0.,12.0,0.,12.0
1979-03-09 15:52:50.510 ,3,0,0.,12.0,0.,12.0,0.,12.0,0.,12.0
1979-03-09 15:53:02.510 ,3,0,0.,12.0,0.,12.0,0.,12.0,0.,12.0
1979-03-09 15:53:14.510 ,4,0,0.,12.0,0.,12.0,0.,12.0,0.,12.0
1979-03-09 15:53:26.510 ,4,0,0.,12.0,0.,12.0,0.,12.0,0.,12.0
1979-03-09 15:53:38.510 ,5,0,0.,12.0,0.,12.0,0.,12.0,0.,12.0
1979-03-09 15:53:50.510 ,5,0,0.,12.0,0.,12.0,0.,12.0,0.,12.0
1979-03-09 15:54:02.510 ,6,0,0.,12.0,0.,12.0,0.,12.0,0.,12.0
1979-03-09 15:54:14.510 ,6,0,0.,12.0,0.,12.0,0.,12.0,0.,12.0
1979-03-09 15:54:26.510 ,7,0,0.,12.0,0.,12.0,0.,12.0,0.,12.0
1979-03-09 15:54:38.510 ,7,0,0.,12.0,0.,12.0,0.,12.0,0.,12.0
1979-03-09 15:54:50.510 ,7,0,0.,12.0,0.,12.0,0.,12.0,0.,12.0
1979-03-09 15:55:02.510 ,7,0,0.,12.0,0.,12.0,0.,12.0,0.,12.0
1979-03-09 15:55:14.510 ,6,0,0.,12.0,0.,12.0,0.,12.0,0.,12.0
1979-03-09 15:55:26.510 ,6,0,0.,12.0,0.,12.0,0.,12.0,0.,12.0
1979-03-09 15:55:38.510 ,5,0,0.,12.0,0.,12.0,0.,12.0,0.,12.0
1979-03-09 15:55:50.510 ,5,0,0.,12.0,0.,12.0,0.,12.0,0.,12.0
1979-03-09 15:56:02.510 ,4,0,1.,12.0,0.,12.0,0.,12.0,0.,12.0
1979-03-09 15:56:14.510 ,4,0,0.,12.0,0.,12.0,0.,12.0,0.,12.0
1979-03-09 15:56:26.510 ,3,0,0.,12.0,0.,12.0,0.,12.0,0.,12.0
1979-03-09 15:56:38.510 ,3,0,0.,12.0,0.,12.0,0.,12.0,0.,12.0
1979-03-09 15:56:50.510 ,2,0,0.,12.0,0.,12.0,0.,12.0,0.,12.0
1979-03-09 15:57:02.510 ,2,0,0.,12.0,0.,12.0,0.,12.0,0.,12.0
1979-03-09 15:57:14.510 ,1,0,0.,12.0,0.,12.0,0.,12.0,0.,12.0
1979-03-09 15:57:26.510 ,1,0,0.,12.0,0.,12.0,0.,12.0,0.,12.0
1979-03-09 15:57:38.510 ,0,0,0.,12.0,0.,12.0,0.,12.0,0.,12.0
1979-03-09 15:57:50.510 ,0,0,0.,12.0,0.,12.0,0.,12.0,0.,12.0
1979-03-09 15:58:02.510 ,0,0,0.,12.0,0.,12.0,0.,12.0,0.,12.0
1979-03-09 15:58:14.510 ,0,0,0.,12.0,0.,12.0,0.,12.0,0.,12.0
1979-03-09 15:58:26.500 ,1,0,0.,12.0,0.,12.0,0.,12.0,0.,12.0
1979-03-09 15:58:38.500 ,1,0,0.,12.0,0.,12.0,0.,12.0,0.,12.0
1979-03-09 15:58:50.500 ,2,0,0.,12.0,0.,12.0,0.,12.0,0.,12.0
1979-03-09 15:59:02.500 ,2,0,0.,12.0,0.,12.0,0.,12.0,0.,12.0
1979-03-09 15:59:14.500 ,3,0,0.,12.0,0.,12.0,0.,12.0,0.,12.0
1979-03-09 15:59:26.500 ,3,0,0.,12.0,0.,12.0,0.,12.0,0.,12.0
1979-03-09 15:59:38.500 ,4,0,1.,12.0,0.,12.0,0.,12.0,0.,12.0
1979-03-09 15:59:50.500 ,4,0,0.,12.0,0.,12.0,0.,12.0,0.,12.0
1979-03-09 16:00:02.500 ,5,0,0.,12.0,0.,12.0,0.,12.0,0.,12.0
1979-03-09 16:00:14.500 ,5,0,1.,12.0,0.,12.0,0.,12.0,0.,12.0
1979-03-09 16:00:26.500 ,6,0,0.,12.0,0.,12.0,0.,12.0,0.,12.0
1979-03-09 16:00:38.500 ,6,0,0.,12.0,0.,12.0,0.,12.0,0.,12.0
1979-03-09 16:00:50.500 ,7,0,0.,12.0,0.,12.0,0.,12.0,0.,12.0
1979-03-09 16:01:02.500 ,7,0,0.,12.0,0.,12.0,0.,12.0,0.,12.0
1979-03-09 16:01:14.500 ,7,0,0.,12.0,0.,12.0,0.,12.0,0.,12.0
1979-03-09 16:01:26.500 ,7,0,0.,12.0,0.,12.0,0.,12.0,0.,12.0
1979-03-09 16:01:38.500 ,6,0,0.,12.0,0.,12.0,0.,12.0,0.,12.0
1979-03-09 16:01:50.500 ,6,0,0.,12.0,0.,12.0,0.,12.0,0.,12.0
1979-03-09 16:02:02.500 ,5,0,0.,12.0,0.,12.0,0.,12.0,0.,12.0
1979-03-09 16:02:14.500 ,5,0,0.,12.0,0.,12.0,0.,12.0,0.,12.0
1979-03-09 16:02:26.500 ,4,0,0.,12.0,0.,12.0,0.,12.0,0.,12.0
1979-03-09 16:02:38.500 ,4,0,1.,12.0,0.,12.0,0.,12.0,0.,12.0
1979-03-09 16:02:50.500 ,3,0,0.,12.0,0.,12.0,0.,12.0,0.,12.0
1979-03-09 16:03:02.500 ,3,0,0.,12.0,0.,12.0,0.,12.0,0.,12.0
1979-03-09 16:03:14.500 ,2,0,0.,12.0,0.,12.0,0.,12.0,0.,12.0
1979-03-09 16:03:26.500 ,2,0,0.,12.0,0.,12.0,0.,12.0,0.,12.0
1979-03-09 16:03:38.500 ,1,0,0.,12.0,0.,12.0,0.,12.0,0.,12.0
1979-03-09 16:03:50.500 ,1,0,0.,12.0,0.,12.0,0.,12.0,0.,12.0
1979-03-09 16:04:02.500 ,0,0,0.,12.0,0.,12.0,0.,12.0,0.,12.0
1979-03-09 16:04:14.500 ,0,0,0.,12.0,0.,12.0,0.,12.0,0.,12.0
1979-03-09 16:04:26.500 ,0,0,0.,12.0,0.,12.0,0.,12.0,0.,12.0
1979-03-09 16:04:38.500 ,0,0,0.,12.0,0.,12.0,0.,12.0,0.,12.0
1979-03-09 16:04:50.500 ,1,0,0.,12.0,0.,12.0,0.,12.0,0.,12.0
1979-03-09 16:05:02.500 ,1,0,0.,12.0,0.,12.0,0.,12.0,0.,12.0
1979-03-09 16:05:14.500 ,2,0,0.,12.0,0.,12.0,0.,12.0,0.,12.0
1979-03-09 16:05:26.500 ,2,0,0.,12.0,0.,12.0,0.,12.0,0.,12.0
1979-03-09 16:05:38.500 ,3,0,0.,12.0,0.,12.0,0.,12.0,0.,12.0
1979-03-09 16:05:50.500 ,3,0,0.,12.0,0.,12.0,0.,12.0,0.,12.0
1979-03-09 16:06:02.500 ,4,0,0.,12.0,0.,12.0,0.,12.0,0.,12.0
1979-03-09 16:06:14.500 ,4,0,0.,12.0,0.,12.0,0.,12.0,0.,12.0
1979-03-09 16:06:26.500 ,5,0,0.,12.0,0.,12.0,0.,12.0,0.,12.0
1979-03-09 16:06:38.500 ,5,0,0.,12.0,0.,12.0,0.,12.0,0.,12.0
1979-03-09 16:06:50.500 ,6,0,0.,12.0,0.,12.0,0.,12.0,0.,12.0
1979-03-09 16:07:02.500 ,6,0,0.,12.0,0.,12.0,0.,12.0,0.,12.0
1979-03-09 16:07:14.500 ,7,0,0.,12.0,0.,12.0,0.,12.0,0.,12.0
1979-03-09 16:07:26.500 ,7,0,0.,12.0,0.,12.0,0.,12.0,0.,12.0
1979-03-09 16:07:38.500 ,7,0,0.,12.0,0.,12.0,0.,12.0,0.,12.0
1979-03-09 16:07:50.500 ,7,0,0.,12.0,0.,12.0,0.,12.0,0.,12.0
1979-03-09 16:08:02.490 ,6,0,0.,12.0,0.,12.0,0.,12.0,0.,12.0
1979-03-09 16:08:14.490 ,6,0,0.,12.0,0.,12.0,0.,12.0,0.,12.0
1979-03-09 16:08:26.490 ,5,0,0.,12.0,0.,12.0,0.,12.0,0.,12.0
1979-03-09 16:08:38.490 ,5,0,0.,12.0,0.,12.0,0.,12.0,0.,12.0
1979-03-09 16:08:50.490 ,4,0,0.,12.0,0.,12.0,0.,12.0,0.,12.0
1979-03-09 16:09:02.490 ,4,0,0.,12.0,0.,12.0,0.,12.0,0.,12.0
1979-03-09 16:09:14.490 ,3,0,0.,12.0,0.,12.0,0.,12.0,0.,12.0
1979-03-09 16:09:26.490 ,3,0,0.,12.0,0.,12.0,0.,12.0,0.,12.0
1979-03-09 16:09:38.490 ,2,0,0.,12.0,0.,12.0,0.,12.0,0.,12.0
1979-03-09 16:09:50.490 ,2,0,0.,12.0,0.,12.0,0.,12.0,0.,12.0
1979-03-09 16:10:02.490 ,1,0,0.,12.0,0.,12.0,0.,12.0,0.,12.0
1979-03-09 16:10:14.490 ,1,0,0.,12.0,0.,12.0,0.,12.0,0.,12.0
1979-03-09 16:10:26.490 ,0,0,0.,12.0,0.,12.0,0.,12.0,0.,12.0
1979-03-09 16:10:38.490 ,0,0,0.,12.0,0.,12.0,0.,12.0,0.,12.0
1979-03-09 16:10:50.490 ,0,0,0.,12.0,0.,12.0,0.,12.0,0.,12.0
1979-03-09 16:11:02.490 ,0,0,0.,12.0,0.,12.0,0.,12.0,0.,12.0
1979-03-09 16:11:14.490 ,1,0,0.,12.0,0.,12.0,0.,12.0,0.,12.0
1979-03-09 16:11:26.490 ,1,0,0.,12.0,0.,12.0,0.,12.0,0.,12.0
1979-03-09 16:11:38.490 ,2,0,0.,12.0,0.,12.0,0.,12.0,0.,12.0
1979-03-09 16:11:50.490 ,2,0,0.,12.0,0.,12.0,0.,12.0,0.,12.0
1979-03-09 16:12:02.490 ,3,0,0.,12.0,0.,12.0,0.,12.0,0.,12.0
1979-03-09 16:12:14.490 ,3,0,0.,12.0,0.,12.0,0.,12.0,0.,12.0
1979-03-09 16:12:26.490 ,4,0,0.,12.0,0.,12.0,0.,12.0,0.,12.0
1979-03-09 16:12:38.490 ,4,0,0.,12.0,0.,12.0,0.,12.0,0.,12.0
1979-03-09 16:12:50.490 ,5,0,0.,12.0,0.,12.0,0.,12.0,0.,12.0
1979-03-09 16:13:02.490 ,5,0,0.,12.0,0.,12.0,0.,12.0,0.,12.0
1979-03-09 16:13:14.490 ,6,0,0.,12.0,0.,12.0,0.,12.0,0.,12.0
1979-03-09 16:13:26.490 ,6,0,0.,12.0,0.,12.0,0.,12.0,0.,12.0
1979-03-09 16:13:38.490 ,7,0,0.,12.0,0.,12.0,0.,12.0,0.,12.0
1979-03-09 16:13:50.490 ,7,0,0.,12.0,0.,12.0,0.,12.0,0.,12.0
1979-03-09 16:14:02.490 ,7,0,0.,12.0,0.,12.0,0.,12.0,0.,12.0
1979-03-09 16:14:14.490 ,7,0,0.,12.0,0.,12.0,0.,12.0,0.,12.0
1979-03-09 16:14:26.490 ,6,0,0.,12.0,0.,12.0,0.,12.0,0.,12.0
1979-03-09 16:14:38.490 ,6,0,0.,12.0,0.,12.0,0.,12.0,0.,12.0
1979-03-09 16:14:50.490 ,5,0,0.,12.0,0.,12.0,0.,12.0,0.,12.0
1979-03-09 16:15:02.490 ,5,0,1.,12.0,0.,12.0,0.,12.0,0.,12.0
1979-03-09 16:15:14.490 ,4,0,0.,12.0,0.,12.0,0.,12.0,0.,12.0
1979-03-09 16:15:26.490 ,4,0,0.,12.0,0.,12.0,0.,12.0,0.,12.0
1979-03-09 16:15:38.490 ,3,0,0.,12.0,0.,12.0,0.,12.0,0.,12.0
1979-03-09 16:15:50.490 ,3,0,0.,12.0,0.,12.0,0.,12.0,0.,12.0
1979-03-09 16:16:02.490 ,2,0,0.,12.0,0.,12.0,0.,12.0,0.,12.0
1979-03-09 16:16:14.490 ,2,0,0.,12.0,0.,12.0,0.,12.0,0.,12.0
1979-03-09 16:16:26.490 ,1,0,0.,12.0,0.,12.0,0.,12.0,0.,12.0
1979-03-09 16:16:38.490 ,1,0,0.,12.0,0.,12.0,0.,12.0,0.,12.0
1979-03-09 16:16:50.480 ,0,0,0.,12.0,0.,12.0,0.,12.0,0.,12.0
1979-03-09 16:17:02.480 ,0,0,0.,12.0,0.,12.0,0.,12.0,0.,12.0
1979-03-09 16:17:14.480 ,0,0,0.,12.0,0.,12.0,0.,12.0,0.,12.0
1979-03-09 16:17:26.480 ,0,0,0.,12.0,0.,12.0,0.,12.0,0.,12.0
1979-03-09 16:17:38.480 ,1,0,0.,12.0,0.,12.0,0.,12.0,0.,12.0
1979-03-09 16:17:50.480 ,1,0,0.,12.0,0.,12.0,0.,12.0,0.,12.0
1979-03-09 16:18:02.480 ,2,0,0.,12.0,0.,12.0,0.,12.0,0.,12.0
1979-03-09 16:18:14.480 ,2,0,0.,12.0,0.,12.0,0.,12.0,0.,12.0